{"data":{"norad_id":68136,"intl_designator":"2026-047H","name":"HULIANWANG DIGUI-162","alt_names":[],"object_type":"PAYLOAD","status":"ACTIVE","operator":null,"country":"PRC","launch_date":"2026-03-12","launch_site_code":"WSC","launch_vehicle":null,"mission":null,"orbit_class":"UNKNOWN","rcs_meters":null,"size_class":null,"mass_kg":null,"dimensions":null,"purposes":[],"wikipedia_slug":null,"has_3d_model":false,"image_url":null,"decayed_at":null,"tle_current":{"epoch":"2026-09-20T20:59:07.159488Z","epoch_age_seconds":45833,"freshness":"FRESH","line1":"1 68136U 26047H   26263.87438842 -.00000110  00000+0  29628-4 0  9999","line2":"2 68136  50.0059  72.7372 0001251  92.7760 267.3256 13.29324720 25790","mean_motion":13.2932472,"eccentricity":0.0001251,"inclination_deg":50.0059,"raan_deg":72.7372,"arg_perigee_deg":92.776,"mean_anomaly_deg":267.3256,"bstar":2.9628e-5,"rev_number":2579,"period_min":108.32567681432,"perigee_km":1148.3697201491,"apogee_km":1150.2530877397,"semimajor_km":7527.4484039444,"source":"CELESTRAK","updated_at":"2026-09-21T09:00:17.095566Z"}}}